{"data":{"norad_id":69494,"intl_designator":"2026-131S","name":"STARLINK-37854","alt_names":[],"object_type":"PAYLOAD","status":"ACTIVE","operator":null,"country":"US","launch_date":"2026-06-11","launch_site_code":"AFWTR","launch_vehicle":null,"mission":null,"orbit_class":"UNKNOWN","rcs_meters":null,"size_class":null,"mass_kg":null,"dimensions":null,"purposes":["comms"],"wikipedia_slug":null,"has_3d_model":false,"image_url":null,"decayed_at":null,"tle_current":{"epoch":"2026-09-20T00:02:54.464064Z","epoch_age_seconds":68503,"freshness":"FRESH","line1":"1 69494U 26131S   26263.00201926  .00016130  00000+0  50079-3 0  9998","line2":"2 69494  97.2845 283.9108 0000810  49.8534 310.2780 15.33452345 16825","mean_motion":15.33452345,"eccentricity":8.1e-5,"inclination_deg":97.2845,"raan_deg":283.9108,"arg_perigee_deg":49.8534,"mean_anomaly_deg":310.278,"bstar":0.00050079,"rev_number":1682,"period_min":93.905754860612,"perigee_km":464.96698468901,"apogee_km":466.07565733701,"semimajor_km":6843.658321013,"source":"CELESTRAK","updated_at":"2026-09-20T09:00:44.208496Z"}}}